Regional Weather Roundup
Issued by NWS Grand Forks, ND

Home | Current Version | Previous Version | Graphics & Text | Print | Product List | Glossary On
Versions: 1 2 3 4 5 6 7 8 9 10 11 12 13 14 15 16 17 18 19 20 21 22 23 24 25 26 27 28 29 30 31 32 33 34 35 36 37 38 39 40 41 42 43 44 45 46 47 48 49 50
000
ASUS43 KFGF 212231
RWRFGF
PRAIRIE TO PINES  WEATHER ROUNDUP
NATIONAL WEATHER SERVICE EASTERN NORTH DAKOTA/GRAND FORKS ND
400 PM CST SUN JAN 21 2018

 **SATELLITE DATA USED TO AUGMENT SKY COVER AT AUTOMATED STATIONS**
 *****  WEATHER ACROSS EASTERN NORTH DAKOTA  *****

CITY           SKY/WX    TMP DP  RH WIND       PRES   REMARKS
GRAND FORKS    CLOUDY    26  23  88 N8        30.09R WCI  18
GRAND FRKS AFB CLOUDY    26  22  86 NE7       30.08R WCI  18
DEVILS LAKE    FOG       22  21  96 CALM      30.05R VSB 1/4
FARGO          MOCLDY    27  24  89 N13       30.06R WCI  16
WAHPETON ARPT  FAIR      28  27  93 N9        30.04S WCI  20
$$

 ***** WEATHER ACROSS CENTRAL AND WESTERN NORTH DAKOTA  *****

CITY           SKY/WX    TMP DP  RH WIND       PRES   REMARKS
BISMARCK       FAIR      28  22  78 CALM      30.03R
MINOT          FAIR      32  22  66 S8        29.98S WCI  25
JAMESTOWN      CLOUDY    27  25  92 E3        30.03S
MINOT AFB      FAIR      31  21  68 SW8       29.97S WCI  23
GARRISON         N/A     29  22  75 CALM      29.98S
WILLISTON      FAIR      31  21  66 W9        29.99R WCI  23
DICKINSON      FAIR      33  23  66 W9        29.96R
HETTINGER      FAIR      37  24  59 W10       29.98S
$$

 *****  OTHER AIRPORT OBSERVATIONS IN OUR AREA  *****

CITY           SKY/WX    TMP DP  RH WIND       PRES   REMARKS
WALHALLA       FAIR      23  23 100 NE5       30.09S WCI  17
GRAFTON AIRPOR NOT AVBL
VALLEY CITY AR NOT AVBL
CANDO          FOG       23  25 100 CALM      30.07R VSB<1/4
CAVALIER APRT    N/A     23  23 100 NE5       30.09S WCI  17
GWINNER          N/A     28  25  86 NE13      30.03F WCI  18
SHEYENNE NWR     N/A     28  26  91 NE7       29.95S WCI  21
ROLLA          FOG       23  23 100 SW5       30.03R VSB<1/4 WCI  17
 ***** THE ABOVE OBSERVATIONS ARE NON NWS ARE NOT QUALITY
       CONTROLLED AND MAY MIS-REPORT RAIN FOR SNOW...
$$

  *****  WEATHER ACROSS NORTHERN MINNESOTA  *****

CITY           SKY/WX    TMP DP  RH WIND       PRES   REMARKS
FLAG ISLAND    CLOUDY    25  21  86 N5        30.07S WCI  19
WARROAD        CLOUDY    27  21  80 NE3       30.08S
ROSEAU         CLOUDY    27  21  80 CALM      30.08R
HALLOCK        CLOUDY    23  19  86 N8        30.09S WCI  14
THF RVR FALLS  CLOUDY    24  23  96 N6        30.07R WCI  17
BAUDETTE       CLOUDY    25  24  96 NW6       30.05R WCI  18
WASKISH        CLOUDY    25  25 100 CALM      30.06R FOG
CROOKSTON      FAIR      25  25 100 NW5       30.10R WCI  19
STEPHEN NDAWN    N/A     23  19  86 N5          N/A  WCI  17
GREENBUSH NDAW   N/A     25  21  86 N6          N/A  WCI  18
$$
  *****  WEATHER ACROSS CENTRAL AND WEST MINNESOTA  *****

CITY           SKY/WX    TMP DP  RH WIND       PRES   REMARKS
FOSSTON        CLOUDY    21  21 100 N7        30.06R WCI  13
BEMIDJI        CLOUDY    24  24  97 N5        30.03R FOG     WCI  19
PARK RAPIDS    CLOUDY    27  23  85 N9        30.00S WCI  18
ELBOW LAKE     FAIR      32  29  89 N7        30.00S
WADENA         FAIR      30  27  86 N5        29.99S
DETROIT LAKES  CLOUDY    28  28 100 N8        30.02S WCI  20
MOORHEAD       CLOUDY    27  25  93 N13       30.06S WCI  16
FERGUS FALLS   FAIR      30  27  86 N6        30.01S WCI  24
MORRIS MN      FAIR      32  28  86 NW7       29.99S
STAPLES        FAIR      30  25  80 N5        29.99S
$$
  *****  WEATHER ELSEWHERE ACROSS MINNESOTA  *****

CITY           SKY/WX    TMP DP  RH WIND       PRES   REMARKS
DULUTH         FOG       29  28  96 E8        29.99R VSB 1   WCI  21
INTRNTL FALLS  FOG       26  24  92 CALM      30.04R VSB 1/2
ELY            CLOUDY    25  25 100 CALM      30.02R
CLOQUET        FAIR      34  25  69 CALM      29.99R
WHEATON        NOT AVBL
BRAINERD       FAIR      33  26  75 N7        30.00R
HIBBING        MOCLDY    26  23  88 N7        30.00S WCI  18
ALEXANDRIA     CLOUDY    34  28  79 N6        29.98S
SAINT CLOUD    CLOUDY    35  29  78 N6        29.97S
MINNEAPOLIS    CLOUDY    37  30  75 N9        29.95S
$$

  *****  WEATHER ACROSS SOUTH DAKOTA  *****

CITY           SKY/WX    TMP DP  RH WIND       PRES   REMARKS
SIOUX FALLS    CLOUDY    37  31  78 NE20G28   29.87R
BROOKINGS      LGT RAIN  36  32  85 NE14      29.90F
WATERTOWN      CLOUDY    34  31  88 N8        29.94F
HURON          CLOUDY    32  30  92 N13       29.95F WCI  22
SISSETON         N/A     31  26  82 N14       30.01S WCI  21
ABERDEEN       CLOUDY    31  26  82 N12       30.01F WCI  22
MITCHELL       CLOUDY    35  33  92 N17       29.93R WCI  25
PIERRE         CLOUDY    33  28  81 N7        29.97R
MOBRIDGE       PTSUNNY   33  24  69 N8        29.97R
RAPID CITY     FAIR      34  22  61 N15       29.96R WCI  24
$$

  *****  SOME WEATHER IN NEARBY STATES *****

CITY           SKY/WX    TMP DP  RH WIND       PRES   REMARKS
GLASGOW MT     FAIR      25  19  78 CALM      29.99R
GREAT FALLS MT FAIR      38  15  39 SW25G33   29.94S
CHEYENNE WY    LGT SNOW  20  18  92 N18G30    29.88R VSB 1   WCI   5
SCOTTSBLUFF NE MIX PCPN  29  24  82 N21G30    29.93R WCI  16
OMAHA NE       DRZL/FOG  40  39  97 N8        29.71F VSB 1
DES MOINES IA  FOG       41  40  96 E8        29.77S VSB 1/4
DAVENPORT IA   FOG       42  40  92 E9        29.85R VSB 1/4
CHICAGO IL     FOG       44  41  89 E6        29.89F VSB 1/4
EAU CLAIRE WI  CLOUDY    38  30  73 N7        29.92S
LA CROSSE WI   CLOUDY    37  31  78 CALM      29.91R
$$

  *****  SOME NATIONAL WEATHER *****

CITY           SKY/WX    TMP DP  RH WIND       PRES   REMARKS
LA GUARDIA NY  MOCLDY    49  29  46 CALM      30.14R
RALEIGH NC     FAIR      64  43  46 SW5       30.19S
ATLANTA GA     FAIR      67  45  45 S8        30.18R
NEW ORLEANS LA CLOUDY    71  59  65 SE15      30.06F
OKLAHOMA CITY  FAIR      69  41  36 SW22      29.65F
ALBUQUERQUE NM PTSUNNY   40  13  33 NW15G24   29.89R
SALT LAKE CITY FAIR      35  22  58 N8        30.21S
LOS ANGELES CA FAIR      63  28  26 W8        30.26F
BOISE ID       FAIR      42  25  50 SE9       30.18F
SEATTLE WA     PTSUNNY   48  38  68 S17G23    29.84S
$$

*** WEATHER ACROSS MANITOBA...SASKATCHEWAN AND ONTARIO ***
                ***ONTARIO***

CITY           SKY/WX    TMP DP  RH WIND       PRES   REMARKS
GERALDTON      CLOUDY     7   0  72 NE13      30.18R WCI  -9
THUNDER BAY    CLOUDY    21  19  93 NE8       30.12R FOG     WCI  12
SIOUX LOOKOUT  FRZ DRZL  10   9  92 E3        30.11R
TORONTO        CLOUDY    36  32  87 SE3       30.06R
BIG TROUT LK   CLEAR     -8 -13  77 W3        30.34R HAZE
PICKLE LAKE    FLURRIES   3  -2  78 NE7       30.20R WCI  -9
DRYDEN         CLOUDY    14  12  92 NE10      30.08R WCI   1
KENORA         CLOUDY    21  19  93 N6        30.06R WCI  14
$$
                *** MANITOBA***

CITY           SKY/WX    TMP DP  RH WIND       PRES   REMARKS
BRANDON        CLOUDY    23  21  93 E8        30.05S WCI  14
DAUPHIN        FLURRIES  18  16  93 NE9       30.07R WCI   6
ISLAND LAKE    MOCLDY     1  -6  71 E6        30.25R WCI -10
PILOT MOUND      N/A     23  21  93 S6          N/A  WCI  16
THE PAS        LGT SNOW   5  -2  72 E6        30.13R WCI  -6
THOMPSON       LGT SNOW  -6 -13  71 NE8       30.27R DRFTSNOWWCI -21
WINNIPEG       CLOUDY    18  12  79 N5        30.12R WCI  11
LYNN LAKE      CLEAR     -4  -9  77 E7        30.18S WCI -18
CHURCHILL      PTCLDY   -20 -26  76 W5        30.51R WCI -33
GILLAM         MOCLDY   -13 -18  77 E5        30.40R WCI -25
$$
                ***SASKATCHEWAN***

CITY           SKY/WX    TMP DP  RH WIND       PRES   REMARKS
ESTEVAN        MOSUNNY   27  19  74 SW8       29.96R WCI  18
KINDERSLEY     MOSUNNY   28  23  80 SE8       29.86S WCI  20
LLOYDMINSTER   CLOUDY    23  21  93 SE15      29.87S FOG     WCI  10
PRINCE ALBERT  CLOUDY    19  16  86 E6        30.00R WCI  11
REGINA         MOSUNNY   27  19  74 CALM      29.94R
YORKTON        CLOUDY    30  27  86 S8        29.96R WCI  23
N. BATTLEFORD  CLOUDY    23  21  93 E6        29.95S WCI  16
LA RONGE       MOCLDY     5   1  85 N6        30.08  WCI  -6
SASKATOON      LGT SNOW  23  21  93 E7        29.97R VSB 1   WCI  15
SWIFT CURRENT  SUNNY     37  21  52 W8        29.88S
$$
NOTE: THESE ARE AUTOMATED STATIONS WITH LIMITED QUALITY CONTROL
      "FAIR" INDICATES FEW OR NO CLOUDS BELOW 12,000 FEET WITH NO
      SIGNIFICANT WEATHER AND/OR OBSTRUCTIONS TO VISIBILITY.
      SKY/WX - SKY CONDITION AND SIGNIFICANT WEATHER.
      TMP - AIR TEMPERATURE.    DP   - DEWPOINT TEMPERATURE.
      RH  - RELATIVE HUMIDITY.  PRES - PRESSURE.
      HX  - HEAT INDEX.         WCI  - WIND CHILL INDEX.
$




USA.gov is the U.S. government's official web portal to all federal, state and local government web resources and services.